User: anonymous   Login
Location: Theydon Bois
(51.6750°N, 0.1050°E)
Time: 11:48:44
(UTC+01:00)
Language:

Cosmos 2218 Rocket - Orbit

View from above orbital plane
View from above orbital plane
View from above satellite
View from above satellite

Ground track
Ground track

The orbit data is extracted from the following two-line orbital elements,

1 22208U 92073B   18196.82639529 +.00000039 +00000-0 +25088-4 0  9993
2 22208 082.9188 090.1595 0034933 021.9367 021.5157 13.75147119289842
Epoch (UTC): 15 July 2018 19:50:00
Eccentricity: 0.0034933
inclination: 82.9188°
perigee height: 955 km
apogee height: 1007 km
right ascension of ascending node: 90.1595°
argument of perigee: 21.9367°
revolutions per day: 13.75147119
mean anomaly at epoch: 21.5157°
orbit number at epoch: 28984

The dashed part of the orbit path shows where the satellite is in the earth's shadow,  

DLR